Home   Weather   White Lake   Past weeks
Flag for USA

Past Weather in White Lake, Michigan, USA — Yesterday and Last 2 Weeks

Now
73 °F

Partly sunny.


Feels Like: 73 °F
Forecast: 81 / 70 °F
Wind: 5 mph from South

Location: Oakland County International Airport

Current Time: Jul 16, 2019 at 9:14:37 am

Latest Report: Jul 16, 2019 at 7:53 am


Visibility: 10 mi

Pressure: 29.95 "Hg

Humidity: 79%

Dew Point: 66 °F

Location of White LakeLocation

Past Weather in White Lake — Graph

°F

White Lake Temperature Yesterday

Maximum temperature yesterday: 89 °F (at 2:53 pm)
Minimum temperature yesterday: 60 °F (at 3:53 am)
Average temperature yesterday: 74 °F

High & Low Weather Summary for the Past Weeks

 TemperatureHumidityPressure
High91 °F (Jul 5, 3:05 pm)96% (Jul 3, 5:16 am)30.14 "Hg (Jul 3, 5:16 am)
Low55 °F (Jul 8, 5:53 am)34% (Jul 8, 3:53 pm)29.77 "Hg (Jul 11, 4:53 pm)
Average75 °F65%29.96 "Hg
* Reported Jul 1 7:53 am — Jul 16 7:53 am, White Lake. Weather by CustomWeather, © 2019

Note: Actual official high and low records may vary slightly from our data, if they occured in-between our weather recording intervals... More about our weather records

Advertising

White Lake Weather History for the Previous 24 Hours

Scroll right to see more
 ConditionsComfort  
Time TempWeatherWind HumidityBarometerVisibility
7:53 am
Tue, Jul 16
73 °FPartly sunny.5 mph79%29.95 "Hg10 mi
6:53 am71 °FScattered clouds.No wind84%29.96 "Hg10 mi
5:53 am70 °FPassing clouds.No wind87%29.96 "Hg10 mi
4:53 am70 °FClear.3 mph87%29.95 "Hg10 mi
3:53 am72 °FClear.No wind84%29.95 "Hg10 mi
2:53 am72 °FClear.3 mph87%29.96 "Hg10 mi
1:53 am72 °FClear.5 mph91%29.98 "Hg10 mi
12:53 am73 °FClear.5 mph90%30.00 "Hg10 mi
11:53 pm
Mon, Jul 15
73 °FPassing clouds.No wind88%29.99 "Hg10 mi
10:53 pm74 °FPassing clouds.No wind82%29.98 "Hg10 mi
9:53 pm73 °FPassing clouds.5 mph88%29.98 "Hg10 mi
8:53 pm75 °FScattered clouds.6 mph85%29.98 "Hg10 mi
7:53 pm74 °FBroken clouds.8 mph88%29.98 "Hg10 mi
7:43 pm74 °FBroken clouds.9 mph88%30.00 "Hg10 mi
7:26 pm73 °FThunderstorms. Fog.9 mph89%30.00 "Hg5 mi
7:04 pm74 °FThunderstorms. Mostly cloudy.14 mph85%30.01 "Hg2 mi
6:58 pm74 °FStrong thunderstorms. Fog.14 mph88%30.00 "Hg1 mi
5:53 pm76 °FMostly cloudy.5 mph77%29.99 "Hg8 mi
5:44 pm76 °FLight rain. Mostly cloudy.14 mph80%30.00 "Hg4 mi
4:53 pm88 °FThunderstorms. Cloudy.5 mph45%29.97 "Hg10 mi
3:53 pm89 °FBroken clouds.10 mph42%29.98 "Hg10 mi
2:53 pm89 °FScattered clouds.8 mph41%30.01 "Hg10 mi
1:53 pm86 °FPassing clouds.7 mph43%30.03 "Hg10 mi
12:53 pm83 °FPartly sunny.9 mph43%30.06 "Hg10 mi
11:53 am82 °FBroken clouds.8 mph46%30.07 "Hg10 mi
10:53 am79 °FPartly sunny.10 mph48%30.08 "Hg10 mi
9:53 am77 °FPartly sunny.7 mph54%30.10 "Hg10 mi
Weather by CustomWeather, © 2019

See weather overview

LIVE PARTIAL LUNAR ECLIPSE – Watch the eclipse as it happens